Kiripotib Landing Site

Jump to: basic info | weather | comments

Related pages: nearby airports | nearby navaids

Basic information (top)

Location: lon -23.328300, lat 17.946400, elev 4,475 ft / 1,364 m msl
Status: small_airport

Weather (top)

Current conditions for Hosea Kutako International Airport 57nm (106km) NNW (rec'd 2015/02/01 09:00Z):

FYWH 010900Z 16006KT 9999 FEW030 27/05 Q1021 NOSIG

Airport forecast for Hosea Kutako International Airport 57nm (106km) NNW (rec'd 2015/01/30 06:00Z):

TAF FYWH 300400Z 3006/3112 23006KT CAVOK 
      BECMG 3009/3011 07008KT 9999 SCT030 
      TEMPO 3013/3016 8000 -TSRA FEW030CB 
      BECMG 3018/3020 27006KT 9999 NSW FEW030CB

Latest comments (top)

More details: Once can also land in the nearby salt ... [read]

Kiripotib Landing Strip Details: GPS location: S 23° 19' 50'' E 17° ... [read]

More... (top)

See also NOTAMs and nearby airports and navaids, or visit the Kiripotib Landing Site page at the main OurAirports website..